Home   Weather   Wausau   Past weeks
Flag for USA

Past Weather in Wausau, Wisconsin, USA — Yesterday and Last 2 Weeks

Now
67 °F

Sunny.


Feels Like: 67 °F
Forecast: 79 / 56 °F
Wind: 7 mph from Northwest

Location: Wausau Downtown Airport

Current Time: Jun 26, 2019 at 9:09:19 am

Latest Report: Jun 26, 2019 at 7:54 am


Visibility: 10 mi

Pressure: 29.96 "Hg

Humidity: 68%

Dew Point: 56 °F

Location of WausauLocation

Past Weather in Wausau — Graph

°F

Wausau Temperature Yesterday

Maximum temperature yesterday: 80 °F (at 2:54 pm)
Minimum temperature yesterday: 56 °F (at 4:54 am)
Average temperature yesterday: 68 °F

High & Low Weather Summary for the Past Weeks

 TemperatureHumidityPressure
High80 °F (Jun 25, 2:54 pm)100% (Jun 12, 5:03 am)30.16 "Hg (Jun 12, 5:03 am)
Low45 °F (Jun 13, 4:54 am)31% (Jun 13, 4:54 pm)29.53 "Hg (Jun 24, 4:54 pm)
Average62 °F72%29.86 "Hg
* Reported Jun 11 7:54 am — Jun 26 7:54 am, Wausau. Weather by CustomWeather, © 2019

Note: Actual official high and low records may vary slightly from our data, if they occured in-between our weather recording intervals... More about our weather records

Advertising

Wausau Weather History for the Previous 24 Hours

Scroll right to see more
 ConditionsComfort  
Time TempWeatherWind HumidityBarometerVisibility
7:54 am
Wed, Jun 26
67 °FSunny.7 mph68%29.96 "Hg10 mi
6:54 am63 °FSunny.8 mph75%29.96 "Hg10 mi
5:54 am61 °FSunny.7 mph81%29.96 "Hg10 mi
4:54 am60 °FClear.8 mph80%29.94 "Hg10 mi
3:54 am60 °FClear.7 mph80%29.92 "Hg10 mi
2:54 am61 °FClear.5 mph78%29.90 "Hg10 mi
1:54 am63 °FClear.3 mph75%29.89 "Hg10 mi
12:54 am63 °FClear.5 mph75%29.88 "Hg10 mi
11:54 pm
Tue, Jun 25
66 °FClear.12 mph65%29.86 "Hg10 mi
10:54 pm67 °FClear.10 mph66%29.84 "Hg10 mi
9:54 pm70 °FClear.10 mph57%29.80 "Hg10 mi
8:54 pm71 °FClear.9 mph53%29.78 "Hg10 mi
7:54 pm74 °FSunny.13 mph48%29.76 "Hg10 mi
6:54 pm76 °FScattered clouds.21 mph43%29.74 "Hg10 mi
5:54 pm78 °FPassing clouds.22 mph42%29.73 "Hg10 mi
4:54 pm80 °FScattered clouds.17 mph39%29.72 "Hg10 mi
3:54 pm79 °FPassing clouds.16 mph45%29.70 "Hg10 mi
2:54 pm80 °FPassing clouds.16 mph49%29.71 "Hg10 mi
1:54 pm78 °FPassing clouds.12 mph52%29.72 "Hg10 mi
12:54 pm78 °FSunny.17 mph48%29.71 "Hg10 mi
11:54 am76 °FSunny.13 mph50%29.72 "Hg10 mi
10:54 am73 °FSunny.13 mph62%29.72 "Hg10 mi
9:54 am69 °FSunny.8 mph73%29.73 "Hg10 mi
Weather by CustomWeather, © 2019

See weather overview